This demonstration page uses our WeatherBlox Daily Observations layout. Learn more.

Left ArrowRight Arrow

34.02893, -84.19858

Hourly Observations for February 16, 2020

Temp ( °F °C ) Dew Point ( °F °C ) Humidity (%) Winds ( mph kmh ) Pressure ( in mb ) Visibility ( mi km ) Precip ( " mm )
12:53 am 00:53 Clear 41 5 30 -1.1 65 65 Calm 30.31 1026 10 16 0.00 0.00
1:53 am 01:53 Cloudy 41 5 30 -1.1 65 65 VRB 3 6 30.31 1026 10 16 0.00 0.00
2:53 am 02:53 Cloudy 41 5 30 -1.1 65 65 ENE 6 9 30.29 1026 10 16 0.00 0.00
3:53 am 03:53 Cloudy 42 5.6 31 -0.6 65 65 ENE 5 7 30.26 1025 10 16 0.00 0.00
4:53 am 04:53 Cloudy 41 5 32 0 70 70 ENE 5 7 30.24 1024 10 16 0.00 0.00
5:53 am 05:53 Cloudy 41 5 32 0 70 70 ENE 5 7 30.24 1024 10 16 0.00 0.00
6:21 am 06:21 Cloudy 41 5 33 0.6 73 73 VRB 5 7 30.24 1024 10 16 0.00 0.00
6:53 am 06:53 Cloudy 42 5.6 33 0.6 71 71 E 3 6 30.24 1024 10 16 0.00 0.00
7:53 am 07:53 Cloudy with Light Rain 42 5.6 34 1.1 73 73 Calm 30.30 1026 10 16 0.00 0.00
8:50 am 08:50 Cloudy with Light Rain 41 5 36 2 81 81 E 3 6 30.31 1026 9 14 0.00 0.00
8:53 am 08:53 Cloudy with Light Rain 41 5 36 2.2 82 82 E 3 6 30.31 1026 9 14 0.00 0.00
9:53 am 09:53 Cloudy with Light Rain 40 4.4 38 3.3 93 93 ESE 5 7 30.28 1025 5 8 0.07 1.78
10:53 am 10:53 Cloudy with Light Rain 40 4.4 39 3.9 97 97 VRB 3 6 30.25 1024 7 11 0.01 0.25
11:53 am 11:53 Cloudy 42 5.6 39 3.9 89 89 N 6 9 30.25 1024 8 13 0.00 0.00
12:00 pm 12:00 Cloudy 42 5.6 40 4.4 92 92 N 8 13 30.24 1024 8 13 0.00 0.00
12:43 pm 12:43 Cloudy 43 6.1 40 4.4 89 89 Calm 30.23 1024 8 13 0.00 0.00
12:53 pm 12:53 Cloudy 43 6.1 40 4.4 89 89 VRB 5 7 30.21 1023 7 11 0.00 0.00
1:53 pm 13:53 Cloudy 45 7.2 41 5 86 86 Calm 30.17 1022 8 13 0.00 0.00
2:53 pm 14:53 Cloudy with Mist and Fog 45 7.2 42 5.6 90 90 ENE 5 7 30.14 1021 4 6 0.00 0.00
3:53 pm 15:53 Cloudy with Mist and Fog 45 7.2 43 6.1 93 93 Calm 30.14 1021 4 6 0.00 0.00
4:44 pm 16:44 Cloudy with Mist and Fog 45 7.2 43 6.1 93 93 VRB 3 6 30.13 1020 2 3 0.00 0.00
4:53 pm 16:53 Cloudy with Mist and Fog 44 6.7 43 6.1 96 96 Calm 30.14 1021 2 2 0.00 0.00
5:10 pm 17:10 Cloudy with Mist and Fog 45 7.2 44 6.7 97 97 Calm 30.13 1020 2 3 0.00 0.00
5:53 pm 17:53 Cloudy with Mist and Fog 45 7.2 44 6.7 97 97 Calm 30.14 1021 3 4 0.00 0.00
6:53 pm 18:53 Cloudy with Mist and Fog 45 7.2 44 6.7 97 97 Calm 30.14 1021 3 4 0.00 0.00
7:00 pm 19:00 Cloudy with Mist and Fog 45 7.2 44 6.7 97 97 Calm 30.13 1020 5 8 0.00 0.00
7:53 pm 19:53 Cloudy with Mist and Fog 45 7.2 44 6.7 97 97 NNE 3 6 30.14 1021 5 8 0.00 0.00
8:53 pm 20:53 Cloudy with Mist and Fog 45 7.2 44 6.7 97 97 Calm 30.12 1020 4 6 0.00 0.00
9:53 pm 21:53 Cloudy with Mist and Fog 45 7.2 45 7.2 100 100 Calm 30.14 1021 4 6 0.00 0.00
10:53 pm 22:53 Cloudy with Mist and Fog 45 7.2 45 7.2 100 100 Calm 30.14 1021 3 5 0.00 0.00
11:05 pm 23:05 Cloudy with Mist and Fog 45 7.2 44 6.7 97 97 Calm 30.13 1020 3 5 0.00 0.00
11:44 pm 23:44 Cloudy with Mist and Fog 45 7.2 44 6.7 97 97 N 3 6 30.14 1021 2 3 0.00 0.00
11:53 pm 23:53 Cloudy with Mist and Fog 45 7.2 44 6.7 97 97 NNE 3 6 30.14 1021 1 2 0.00 0.00

Powered by AerisWeather